Dewpoint
20 20 19 20 21 21 23 24 25 28 31 33 34 34 36 40 49 53 53 49 48 47 49 48 48 48 48 45 44 45 44 41 40 38 36 35 34 32 36 34 34 34 34 34 30 30 28 28 29 31 27 26 26 25 24 25 26 26 26 26 27 24 24 24 25 24 22 21 20 21 20 20 19 16 15 15 18 21 24 22 22 22 22 24 23
18 17 17 17 18 21 21 21 24 24 26 27 29 31 34 37 38 43 48 53 50 48 48 48 48 48 47 45 45 43 43 43 41 38 36 35 35 36 36 35 36 33 33 33 29 28 27 27 29 30 26 25 25 25 24 27 27 26 26 25 27 25 23 24 25 23 21 17 17 17 19 18 19 19 17 14 14 19 23 22 22 20 20 21 19
16 16 17 16 17 18 18 19 20 21 22 24 25 27 30 32 35 39 43 45 52 49 50 49 49 47 46 45 44 44 44 42 43 44 39 40 37 39 40 39 38 33 34 32 29 28 27 27 28 29 27 26 25 25 24 25 26 26 26 25 24 25 23 26 25 23 17 18 18 15 13 13 17 17 17 16 15 18 21 22 21 18 17 18 18
16 16 15 15 15 15 16 17 18 20 20 20 21 23 25 28 28 34 39 41 41 47 49 49 49 47 47 46 44 42 42 43 44 42 40 38 38 39 37 34 36 35 33 33 31 29 27 27 28 28 26 25 25 24 23 24 25 26 26 25 24 21 22 23 24 24 19 18 13 11 10 10 11 12 15 16 17 16 18 20 20 18 17 16 18
16 15 16 16 15 14 15 15 15 17 18 18 19 20 22 23 25 28 33 35 38 39 41 48 49 48 47 45 46 42 40 40 39 39 38 39 37 36 34 35 36 33 34 33 31 31 30 28 28 27 27 25 25 24 22 24 26 25 25 25 23 21 20 22 24 24 23 21 14 10 14 15 11 9 13 13 16 16 17 18 19 17 16 15 16
15 14 16 17 16 15 14 15 14 14 14 17 18 19 20 21 22 23 27 30 32 34 38 40 45 48 45 43 41 40 39 39 38 37 37 37 37 36 35 34 33 32 33 32 34 33 30 29 29 27 27 27 26 24 23 25 25 25 24 24 23 23 21 19 21 23 23 24 24 18 22 18 11 8 8 8 14 15 16 17 17 16 16 16 16
16 15 15 15 16 16 15 15 15 13 12 14 14 16 18 19 20 21 22 24 26 29 35 37 39 41 45 45 42 41 39 39 38 40 39 37 40 38 37 34 33 31 33 33 33 34 33 30 31 29 27 26 25 24 23 25 25 25 25 25 22 24 22 22 20 20 21 22 24 23 25 21 16 7 7 6 5 6 14 14 15 16 15 15 15
17 16 15 15 16 16 15 15 15 14 15 15 14 14 14 16 18 19 19 21 21 23 27 33 36 38 38 39 43 44 43 40 41 40 37 37 37 36 36 35 33 36 33 33 34 35 33 31 30 30 28 27 26 24 23 23 24 26 25 25 23 22 20 22 19 19 19 19 20 20 22 23 21 17 6 5 6 3 7 11 13 15 13 14 14
17 17 16 16 16 17 16 15 15 16 16 15 14 14 14 15 17 15 15 17 18 20 21 25 32 35 36 36 36 38 40 43 46 45 43 38 37 35 34 34 33 35 35 35 35 35 37 38 31 30 30 27 28 25 23 23 22 23 23 23 20 20 21 20 21 19 18 18 19 19 18 17 14 8 9 5 6 6 5 8 8 11 11 12 12
17 17 17 16 16 17 17 17 17 17 17 17 15 15 15 16 16 15 15 13 15 16 17 18 23 30 33 33 34 35 36 37 38 40 40 39 37 36 33 33 33 33 33 33 34 36 35 36 37 33 30 30 29 25 24 24 24 24 24 23 22 19 19 20 19 18 18 17 17 18 17 18 17 18 10 8 5 4 4 6 6 8 8 8 10
16 17 18 17 16 16 16 16 16 17 17 17 16 14 15 16 16 16 15 14 13 13 15 15 17 18 23 28 30 31 34 35 36 36 38 39 39 37 35 34 33 32 33 32 33 34 35 36 38 35 33 32 27 25 23 21 21 21 23 23 21 18 18 19 20 19 18 17 16 16 17 16 16 18 16 10 7 6 5 3 4 6 7 6 7
16 16 17 17 17 16 16 16 15 15 15 16 15 15 15 15 15 15 14 14 14 13 13 12 13 15 16 17 19 26 31 33 34 35 36 37 37 39 38 35 33 32 31 31 31 32 34 35 37 35 32 30 26 24 23 21 21 20 20 20 19 18 18 19 18 19 19 18 17 16 15 17 16 14 14 12 10 8 7 4 2 4 5 6 7
16 16 18 18 16 15 16 16 15 14 12 14 15 15 13 13 13 13 14 13 13 12 12 11 11 12 12 14 15 18 20 28 33 34 35 36 37 37 37 38 37 33 31 31 31 31 32 35 35 34 32 29 28 26 26 25 22 20 19 19 19 19 19 18 18 19 19 18 18 16 15 15 14 14 15 13 12 11 11 7 3 4 3 4 4
16 18 18 18 16 16 15 16 15 13 12 12 13 12 12 12 12 12 13 13 12 12 11 10 9 10 11 12 13 14 16 18 20 29 33 34 36 36 37 37 38 37 33 31 31 31 31 34 36 36 35 35 32 28 27 24 24 20 19 18 18 19 19 18 19 19 19 19 18 17 16 15 14 14 13 15 13 16 14 16 6 2 2 2 1
15 19 20 17 15 14 14 14 14 13 12 12 13 12 11 9 8 7 11 13 11 11 10 9 9 8 8 10 12 12 14 15 15 17 19 29 33 34 36 37 38 38 37 35 32 32 30 30 32 33 34 33 35 35 34 33 27 23 20 18 18 18 18 18 18 18 22 20 19 18 17 16 15 14 14 14 13 13 14 13 13 8 2 0 -2
15 16 16 16 15 14 13 11 11 11 11 11 11 13 12 10 8 7 8 10 10 10 8 8 8 7 8 8 10 11 13 14 14 15 16 17 19 28 33 35 36 37 37 36 35 32 31 30 31 33 33 33 31 32 32 33 33 32 31 22 18 24 20 17 17 18 19 19 20 19 18 18 15 15 14 13 13 14 14 13 12 10 7 3 -3
14 13 11 14 14 12 12 10 10 10 10 9 10 11 11 8 7 6 7 7 7 8 8 7 6 6 8 8 8 8 10 12 13 15 16 16 17 18 20 26 33 36 36 37 36 35 33 32 31 31 33 34 33 31 29 28 28 27 29 33 27 21 20 17 17 17 18 19 20 19 19 18 17 16 15 14 13 13 13 13 12 9 13 8 3
9 8 8 10 14 12 11 9 8 8 9 9 9 10 10 8 5 5 5 7 8 6 5 6 4 5 6 7 6 7 9 11 13 15 16 16 16 16 17 18 22 28 32 35 35 35 34 32 32 32 32 33 33 34 33 31 30 30 29 30 29 24 22 20 18 17 18 18 20 19 19 21 18 17 16 15 14 13 14 17 13 10 10 10 9
8 8 7 9 11 12 11 7 6 6 7 9 9 10 8 5 4 4 4 5 7 7 4 3 2 7 9 6 6 7 8 11 13 16 15 16 16 16 16 18 18 20 24 28 30 33 33 33 32 32 32 32 32 33 34 33 33 31 31 31 32 29 26 22 19 19 19 19 19 20 20 19 18 18 17 16 15 19 16 15 14 16 16 16 14
8 7 6 7 10 8 9 7 6 6 7 8 7 7 5 3 2 2 2 3 4 4 3 2 2 3 4 4 5 7 9 9 10 11 13 15 17 17 17 17 17 19 20 23 25 28 30 31 32 32 32 32 31 31 32 32 33 33 32 31 30 31 31 30 29 25 22 20 20 20 20 19 18 18 21 20 17 19 20 15 18 18 15 13 13
6 7 6 6 9 10 9 7 7 5 6 7 5 4 3 2 1 1 2 3 2 3 3 3 2 2 4 3 5 8 6 6 8 9 12 15 16 17 17 18 19 19 20 21 22 24 26 28 29 30 31 31 31 31 31 31 31 31 32 32 31 30 30 30 30 29 26 23 22 22 21 21 19 21 20 20 19 19 20 17 19 17 15 17 16
2 5 5 6 7 9 6 7 7 3 4 3 4 4 3 2 1 1 2 3 3 3 3 3 3 3 2 3 4 5 4 7 8 10 12 12 14 16 17 19 20 21 21 21 21 21 23 25 26 27 28 29 30 30 31 31 31 31 30 30 29 29 29 29 29 27 27 24 23 23 23 21 20 23 22 21 20 20 20 17 19 18 16 16 13
-3 0 4 5 5 6 5 2 4 3 3 2 3 2 2 2 2 2 2 2 4 3 3 3 3 3 3 3 4 4 6 7 7 9 10 11 13 15 18 21 22 23 23 21 21 20 21 21 23 24 26 27 28 29 30 31 31 31 31 30 29 28 28 28 28 28 26 26 25 25 24 22 21 23 23 21 21 20 20 20 19 19 18 15 13
-3 -3 -2 3 4 2 2 2 1 2 2 1 0 1 2 1 -2 -0 1 2 2 3 4 3 4 4 4 4 3 4 6 6 5 6 8 10 13 17 19 20 22 22 21 21 21 20 20 19 20 22 23 24 25 27 28 29 29 29 29 29 29 29 28 28 28 28 28 27 26 26 26 23 23 23 21 21 19 20 20 19 20 19 18 17 13
-6 -4 -4 1 1 0 -0 -1 1 2 -0 -2 -0 1 1 2 2 -0 -1 -0 3 3 3 3 2 3 5 5 6 5 4 4 4 5 8 11 14 17 19 20 21 21 20 19 19 19 18 18 18 20 21 22 23 25 26 27 28 28 28 28 29 29 29 29 28 28 28 28 27 25 27 27 25 24 23 19 20 19 20 19 19 18 16 17 16
-6 -5 -2 -0 1 1 -1 -1 -0 -1 1 -1 -0 0 1 1 1 -0 -1 0 2 4 2 3 4 3 4 8 7 4 4 2 3 6 9 14 16 17 18 18 17 17 18 18 18 18 19 18 18 18 19 21 22 23 24 25 26 27 26 27 29 28 29 29 29 28 28 29 28 27 26 27 26 25 23 22 22 20 20 19 18 18 17 17 16
-5 -4 -2 -0 3 0 -1 1 1 1 -2 0 0 -1 0 1 1 1 1 1 1 3 6 6 6 5 9 7 5 3 3 4 5 8 12 14 16 16 15 14 14 14 15 16 17 17 18 19 19 18 19 20 21 22 23 23 25 25 28 28 28 28 28 29 29 29 29 29 29 28 28 27 27 26 25 24 23 22 21 20 20 19 18 17 16
-4 -3 1 4 5 4 3 3 2 1 1 0 0 2 2 2 2 0 2 -0 1 4 6 9 7 8 7 7 5 5 5 7 10 12 13 14 14 12 11 11 12 13 14 15 16 17 17 18 18 19 19 20 20 22 22 23 25 26 28 28 27 27 27 28 28 29 29 29 29 29 28 28 28 27 26 26 24 22 21 20 20 19 18 17 15
-2 -0 2 3 4 4 4 3 2 2 1 1 1 1 1 2 2 3 3 4 2 5 7 8 8 7 7 7 8 8 10 11 12 12 12 12 11 9 10 11 12 13 15 15 16 17 18 18 18 19 20 22 22 22 23 24 26 27 28 27 27 27 27 27 28 28 28 29 29 28 28 28 28 28 27 26 25 24 21 20 20 20 18 17 15
1 1 3 4 5 5 4 4 3 3 2 3 2 1 2 2 2 2 3 4 6 6 6 7 8 8 8 9 11 12 12 12 11 10 10 9 8 9 11 12 13 13 15 16 17 18 18 18 18 19 20 20 21 22 24 25 26 26 27 27 27 27 27 27 27 27 27 28 28 28 28 28 28 28 27 27 26 25 24 21 20 19 17 16 14
1 2 3 5 5 5 4 5 5 5 5 4 4 3 3 2 2 4 6 6 6 6 7 8 9 10 12 13 13 12 11 7 7 8 8 9 8 9 11 11 12 13 14 15 16 17 18 18 19 19 19 20 20 21 23 24 25 26 25 25 25 26 27 27 27 27 26 26 27 27 27 27 27 27 27 26 26 25 24 24 23 21 20 17 15
0 1 3 3 3 3 4 6 7 8 7 6 5 4 5 4 4 5 5 6 8 8 8 10 13 14 13 13 11 9 7 6 7 8 8 8 8 9 10 11 12 12 13 14 15 16 17 17 18 18 19 19 19 21 23 24 25 25 25 25 25 25 25 26 26 26 25 25 25 25 25 26 26 26 25 25 25 24 24 24 23 22 21 20 19
-0 0 1 0 -1 -0 -1 5 8 7 7 7 6 6 6 6 4 4 5 6 7 10 14 14 14 13 13 10 9 7 6 6 9 8 8 9 8 8 10 10 11 11 12 13 14 15 16 17 17 17 17 18 18 20 22 23 24 25 25 25 24 26 25 25 25 25 25 25 24 24 23 24 24 25 24 23 23 22 25 22 22 21 20 20 21
1 -0 -2 -1 -1 1 4 8 9 8 9 10 10 8 7 5 4 5 6 8 11 14 15 14 12 11 9 8 8 7 8 8 8 8 8 8 8 8 9 10 11 11 12 13 14 15 16 16 16 16 17 17 17 19 21 22 23 24 24 25 25 25 25 25 24 24 24 24 24 23 22 22 21 22 22 22 21 21 20 20 20 19 18 20 20
1 -2 -1 0 3 8 13 12 9 10 11 10 9 7 6 5 7 8 9 9 13 15 14 12 11 10 10 9 8 8 8 8 8 8 9 8 7 8 9 10 10 10 11 11 12 14 16 16 16 16 16 16 16 18 20 21 22 23 24 24 24 25 25 24 24 24 23 23 23 22 22 21 20 20 20 20 20 19 19 18 18 18 17 17 18
2 3 5 9 11 12 11 11 11 10 9 8 8 7 7 8 10 11 12 12 13 12 12 12 11 11 10 8 8 9 9 9 8 8 8 7 7 8 8 8 9 9 10 11 13 14 15 15 15 16 15 15 15 18 19 21 21 22 23 22 23 24 24 23 23 23 22 22 22 22 21 20 19 19 20 20 20 18 18 17 16 16 16 16 16
6 8 8 8 9 10 10 9 9 7 7 7 7 8 9 11 10 10 9 8 6 8 9 10 11 9 9 9 9 9 9 9 8 8 7 7 7 7 8 8 9 9 10 11 12 13 14 15 15 15 15 15 14 16 18 20 21 21 22 20 22 23 22 21 21 21 20 20 19 19 19 18 17 17 19 22 21 19 16 16 15 14 15 15 14
6 4 3 2 0 0 0 1 3 7 7 7 8 10 10 9 7 6 5 5 5 6 9 10 9 9 8 9 9 9 9 9 8 7 7 7 7 7 7 8 8 8 9 10 12 12 14 14 15 15 15 14 14 15 17 19 20 20 20 20 21 20 19 19 18 18 17 17 17 18 18 17 16 16 19 21 21 18 15 15 14 13 12 12 13
4 2 -0 -0 0 2 4 7 8 8 8 8 8 8 7 6 6 6 4 5 6 9 10 9 8 8 8 8 9 9 9 8 8 7 7 7 7 7 7 8 8 9 10 11 11 12 12 13 14 14 15 14 13 14 16 18 19 19 19 20 19 18 17 17 15 15 15 15 16 17 17 17 16 16 20 22 22 18 14 14 14 12 11 11 12
4 -1 -1 1 5 8 8 7 6 6 5 5 5 5 6 5 4 5 4 6 8 9 9 8 8 8 9 9 9 9 9 8 7 7 7 6 7 7 7 7 8 8 9 9 10 11 12 12 12 13 13 13 13 12 14 17 18 19 20 19 18 17 16 15 14 13 13 13 14 15 16 17 19 18 20 22 22 21 15 14 14 12 11 10 13
4 2 6 2 5 8 8 5 4 4 4 4 5 5 4 4 4 5 7 8 8 8 7 7 8 8 9 8 8 8 8 7 7 6 6 6 6 6 7 7 7 8 9 9 10 10 10 11 11 12 12 12 12 12 13 16 17 18 19 21 18 17 16 14 13 13 12 12 12 13 14 16 18 19 20 22 22 22 18 14 14 12 12 13 14
5 6 3 0 5 6 5 4 4 3 4 4 4 3 4 4 6 6 6 7 7 8 8 8 8 8 8 8 8 8 7 6 6 6 5 5 6 6 7 7 7 8 8 9 9 9 9 9 9 10 11 11 11 12 11 13 16 17 18 20 19 17 16 14 12 12 12 12 12 12 13 15 17 19 20 21 22 22 20 14 13 16 17 17 11
3 2 1 4 5 6 5 5 4 4 3 4 4 4 4 5 4 4 6 7 7 8 8 7 7 7 7 7 7 7 6 5 5 5 5 4 5 5 6 7 7 8 8 8 8 8 8 8 8 8 8 9 10 9 12 12 14 16 17 18 20 19 19 15 13 11 12 11 12 12 13 15 18 20 20 21 21 22 20 15 18 19 18 16 13
4 4 3 5 5 6 5 4 4 4 4 4 4 4 4 4 3 6 7 7 8 8 8 7 6 6 6 6 5 5 4 4 4 4 4 4 4 5 5 5 6 6 6 6 6 6 6 6 6 6 6 7 8 8 10 11 12 14 16 17 18 18 20 15 14 12 12 12 12 12 13 17 19 20 20 21 21 21 19 19 19 19 17 16 11
4 2 2 7 6 4 3 3 4 3 4 4 5 4 4 3 4 6 7 8 8 7 6 5 5 5 4 4 4 4 3 3 3 3 3 3 4 4 4 5 5 5 5 5 5 5 5 4 4 4 5 6 6 6 6 8 10 11 13 15 16 17 18 18 15 14 13 12 13 15 16 18 20 20 20 20 20 20 21 20 18 18 17 14 10
2 3 6 5 4 3 3 3 2 2 3 4 5 5 4 4 6 7 8 7 6 5 4 3 3 3 3 3 3 2 2 3 3 3 3 3 3 3 3 3 3 3 4 4 4 4 3 3 3 4 4 5 5 5 5 5 6 8 9 12 13 14 16 18 16 15 15 15 16 16 17 18 18 19 18 18 18 18 19 19 18 18 15 13 11
4 4 4 3 3 2 3 2 1 2 3 4 4 5 5 6 6 7 7 5 4 3 2 2 1 1 1 2 1 0 0 1 1 1 2 2 2 2 2 2 2 2 3 3 3 3 3 3 3 3 3 4 4 4 4 4 4 5 6 8 8 9 12 14 14 14 15 14 15 15 15 16 17 18 18 18 18 18 18 18 17 17 15 13 12
4 3 3 2 2 2 1 1 1 2 3 3 4 4 5 6 6 6 5 3 2 1 0 -0 -0 0 -0 0 -1 -0 -0 -1 0 0 -0 -0 0 1 1 1 1 2 2 1 2 2 2 2 2 2 3 2 2 2 2 2 3 4 4 5 6 6 8 9 11 12 13 13 14 15 15 15 15 16 16 16 16 15 14 15 15 16 16 14 14
3 2 3 1 2 1 0 0 1 2 3 3 3 4 5 4 5 5 3 2 0 -0 -1 -1 -1 -1 -2 -1 -2 -2 -2 -2 -1 -0 -0 -0 -0 0 -0 0 2 2 2 2 1 2 2 2 2 2 1 1 1 1 2 5 4 6 4 4 4 4 6 7 10 12 9 10 12 13 12 13 13 13 13 13 12 12 12 12 13 13 12 13 13
2 2 2 2 1 0 0 0 1 2 2 3 3 3 3 4 4 3 3 1 -0 -1 -2 -2 -2 -3 -3 -4 -4 -4 -2 -2 -2 -3 -2 -1 1 3 3 2 2 5 6 8 9 4 4 4 3 2 2 0 0 1 6 7 8 9 8 7 6 7 7 7 10 11 10 9 9 9 10 10 10 10 9 9 9 9 9 10 10 11 10 10 10
1 1 1 0 -0 0 0 -0 1 2 2 2 2 2 2 3 3 3 2 1 -0 -2 -3 -4 -4 -4 -4 -4 -4 -4 -3 -4 -3 -3 -3 -3 -3 -1 4 5 6 6 6 8 9 10 11 9 8 7 6 7 6 6 8 8 9 9 9 9 7 7 7 7 9 9 8 7 7 6 7 8 8 8 7 7 7 8 7 8 8 8 8 8 9